| time (UTC) | temp F | wind direction | speed MPH | gust MPH | rain 1hr in | rain 24hr in | rain mn in | humidity % | barometer mb |
| 20260510192343 | 74 | 360 | 1.0 | 5.0 | 0.00 | 0.36 | 0.00 | 65 | 1009.3 |
| 20260510191821 | 72 | 360 | 0.0 | 1.0 | 0.00 | 0.36 | 0.00 | 68 | 1009.4 |
| 20260510191322 | 72 | 360 | 0.0 | 1.0 | 0.00 | 0.36 | 0.00 | 69 | 1009.4 |
| 20260510190823 | 72 | 360 | 0.0 | 5.0 | 0.00 | 0.36 | 0.00 | 68 | 1009.4 |
| 20260510190327 | 72 | 360 | 2.0 | 5.0 | 0.00 | 0.36 | 0.00 | 71 | 1009.6 |
| 20260510185859 | 71 | 209 | 0.0 | 8.0 | 0.00 | 0.36 | 0.00 | 68 | 1009.5 |
| 20260510185406 | 71 | 209 | 2.0 | 8.0 | 0.00 | 0.36 | 0.00 | 68 | 1009.6 |
| 20260510184848 | 71 | 17 | 1.0 | 6.0 | 0.00 | 0.36 | 0.00 | 76 | 1009.7 |
| 20260510184329 | 71 | 213 | 0.0 | 4.0 | 0.00 | 0.36 | 0.00 | 75 | 1009.6 |
| 20260510183835 | 72 | 213 | 0.0 | 7.0 | 0.00 | 0.36 | 0.00 | 74 | 1009.6 |
| 20260510183337 | 72 | 213 | 2.0 | 7.0 | 0.00 | 0.36 | 0.00 | 73 | 1009.6 |
| 20260510182835 | 72 | 200 | 1.0 | 5.0 | 0.00 | 0.36 | 0.00 | 75 | 1009.7 |
| 20260510182335 | 72 | 123 | 0.0 | 6.0 | 0.00 | 0.36 | 0.00 | 74 | 1009.6 |
| 20260510181837 | 72 | 200 | 0.0 | 6.0 | 0.00 | 0.36 | 0.00 | 74 | 1009.6 |
| 20260510181338 | 72 | 64 | 0.0 | 3.0 | 0.00 | 0.36 | 0.00 | 73 | 1009.7 |
| 20260510180847 | 72 | 22 | 1.0 | 8.0 | 0.00 | 0.36 | 0.00 | 74 | 1009.6 |
| 20260510180348 | 72 | 136 | 1.0 | 8.0 | 0.00 | 0.36 | 0.00 | 77 | 1009.6 |
| 20260510175832 | 72 | 149 | 1.0 | 6.0 | 0.00 | 0.36 | 0.00 | 75 | 1009.6 |
| 20260510175338 | 71 | 186 | 0.0 | 4.0 | 0.00 | 0.36 | 0.00 | 74 | 1009.6 |
| 20260510174823 | 71 | 163 | 0.0 | 4.0 | 0.00 | 0.36 | 0.00 | 75 | 1009.6 |
| 20260510174325 | 71 | 223 | 0.0 | 5.0 | 0.00 | 0.36 | 0.00 | 76 | 1009.6 |
| 20260510173855 | 71 | 116 | 0.0 | 1.0 | 0.00 | 0.36 | 0.00 | 74 | 1009.7 |
| 20260510173346 | 71 | 117 | 0.0 | 6.0 | 0.00 | 0.36 | 0.00 | 74 | 1009.8 |
| 20260510172827 | 71 | 117 | 1.0 | 6.0 | 0.00 | 0.36 | 0.00 | 75 | 1009.7 |
| 20260510172324 | 71 | 90 | 0.0 | 9.0 | 0.00 | 0.36 | 0.00 | 75 | 1009.8 |
| 20260510171833 | 70 | 205 | 0.0 | 4.0 | 0.00 | 0.36 | 0.00 | 81 | 1009.7 |
| 20260510171333 | 69 | 205 | 1.0 | 7.0 | 0.00 | 0.36 | 0.00 | 78 | 1009.8 |
| 20260510170837 | 70 | 241 | 0.0 | 7.0 | 0.00 | 0.36 | 0.00 | 80 | 1010.0 |
| 20260510170320 | 69 | 223 | 1.0 | 5.0 | 0.00 | 0.36 | 0.00 | 82 | 1009.8 |
| 20260510165826 | 68 | 127 | 0.0 | 4.0 | 0.00 | 0.36 | 0.00 | 80 | 1009.9 |
| 20260510165326 | 68 | 192 | 0.0 | 4.0 | 0.00 | 0.37 | 0.00 | 82 | 1009.9 |
| 20260510164829 | 68 | 206 | 0.0 | 5.0 | 0.00 | 0.37 | 0.00 | 82 | 1010.1 |
| 20260510164327 | 67 | 206 | 1.0 | 4.0 | 0.00 | 0.37 | 0.00 | 82 | 1010.2 |
| 20260510163832 | 67 | 111 | 0.0 | 3.0 | 0.00 | 0.37 | 0.00 | 84 | 1010.3 |
| 20260510163333 | 66 | 110 | 0.0 | 3.0 | 0.00 | 0.37 | 0.00 | 83 | 1010.3 |
| 20260510162825 | 66 | 109 | 0.0 | 4.0 | 0.00 | 0.37 | 0.00 | 85 | 1010.4 |
| 20260510162358 | 66 | 110 | 1.0 | 5.0 | 0.00 | 0.37 | 0.00 | 83 | 1010.4 |
| 20260510161824 | 67 | 213 | 2.0 | 5.0 | 0.00 | 0.37 | 0.00 | 81 | 1010.5 |
| 20260510161322 | 67 | 155 | 0.0 | 6.0 | 0.00 | 0.37 | 0.00 | 82 | 1010.5 |
| 20260510160851 | 67 | 134 | 3.0 | 7.0 | 0.00 | 0.37 | 0.00 | 82 | 1010.4 |
| 20260510160334 | 67 | 208 | 0.0 | 4.0 | 0.00 | 0.37 | 0.00 | 83 | 1010.4 |
| 20260510155837 | 66 | 139 | 0.0 | 1.0 | 0.00 | 0.37 | 0.00 | 86 | 1010.4 |
| 20260510155337 | 66 | 139 | 0.0 | 5.0 | 0.00 | 0.37 | 0.00 | 83 | 1010.5 |
| 20260510154838 | 66 | 139 | 1.0 | 5.0 | 0.00 | 0.37 | 0.00 | 82 | 1010.6 |
| 20260510154339 | 66 | 139 | 0.0 | 4.0 | 0.00 | 0.37 | 0.00 | 83 | 1010.6 |
| 20260510153825 | 66 | 125 | 0.0 | 3.0 | 0.00 | 0.37 | 0.00 | 85 | 1010.7 |
| 20260510153321 | 65 | 71 | 0.0 | 2.0 | 0.00 | 0.37 | 0.00 | 86 | 1010.7 |
| 20260510152822 | 64 | 71 | 0.0 | 2.0 | 0.00 | 0.37 | 0.00 | 86 | 1010.7 |
| 20260510152325 | 64 | 125 | 0.0 | 1.0 | 0.00 | 0.37 | 0.00 | 86 | 1010.8 |
| 20260510151826 | 64 | 125 | 0.0 | 4.0 | 0.00 | 0.37 | 0.00 | 85 | 1010.9 |
| 20260510151328 | 64 | 125 | 1.0 | 6.0 | 0.00 | 0.37 | 0.00 | 86 | 1010.8 |
| 20260510150834 | 64 | 86 | 1.0 | 6.0 | 0.00 | 0.37 | 0.00 | 84 | 1010.8 |
| 20260510150334 | 64 | 132 | 0.0 | 4.0 | 0.00 | 0.37 | 0.00 | 85 | 1010.8 |
| 20260510145837 | 64 | 271 | 0.0 | 5.0 | 0.00 | 0.37 | 0.00 | 87 | 1010.8 |
| 20260510145319 | 64 | 276 | 2.0 | 5.0 | 0.00 | 0.37 | 0.00 | 87 | 1010.7 |
| 20260510144822 | 63 | 203 | 0.0 | 5.0 | 0.00 | 0.37 | 0.00 | 87 | 1010.7 |
| 20260510144328 | 64 | 196 | 2.0 | 5.0 | 0.00 | 0.37 | 0.00 | 88 | 1010.6 |
| 20260510143835 | 63 | 187 | 1.0 | 5.0 | 0.00 | 0.37 | 0.00 | 88 | 1010.6 |
| 20260510143338 | 62 | 93 | 0.0 | 3.0 | 0.00 | 0.37 | 0.00 | 89 | 1010.7 |
| 20260510142845 | 62 | 93 | 1.0 | 6.0 | 0.00 | 0.37 | 0.00 | 88 | 1010.8 |
| 20260510142344 | 61 | 86 | 1.0 | 6.0 | 0.00 | 0.37 | 0.00 | 91 | 1010.8 |
| 20260510141901 | 61 | 144 | 0.0 | 4.0 | 0.00 | 0.37 | 0.00 | 94 | 1010.8 |
| 20260510141341 | 60 | 144 | 1.0 | 4.0 | 0.00 | 0.37 | 0.00 | 95 | 1010.9 |
| 20260510140841 | 59 | 144 | 0.0 | 1.0 | 0.00 | 0.37 | 0.00 | 97 | 1010.8 |
| 20260510140321 | 58 | 144 | 0.0 | 3.0 | 0.00 | 0.37 | 0.00 | 98 | 1010.9 |
| 20260510135825 | 57 | 144 | 1.0 | 3.0 | 0.00 | 0.37 | 0.00 | 99 | 1011.0 |
| 20260510135327 | 57 | 141 | 0.0 | 1.0 | 0.00 | 0.37 | 0.00 | 99 | 1010.9 |
| 20260510134834 | 57 | 141 | 0.0 | 1.0 | 0.00 | 0.37 | 0.00 | 100 | 1010.8 |
| 20260510134335 | 56 | 141 | 0.0 | 1.0 | 0.00 | 0.37 | 0.00 | 100 | 1010.8 |
| 20260510133827 | 56 | 141 | 0.0 | 2.0 | 0.00 | 0.37 | 0.00 | 100 | 1010.8 |
| 20260510133336 | 56 | 141 | 0.0 | 1.0 | 0.00 | 0.37 | 0.00 | 100 | 1010.8 |
| 20260510132839 | 55 | 141 | 0.0 | 1.0 | 0.00 | 0.37 | 0.00 | 100 | 1010.8 |
| 20260510132323 | 55 | 141 | 0.0 | 1.0 | 0.00 | 0.37 | 0.00 | 100 | 1010.8 |
| 20260510131825 | 55 | 141 | 0.0 | 0.0 | 0.00 | 0.37 | 0.00 | 100 | 1010.9 |
| 20260510131327 | 55 | 141 | 0.0 | 0.0 | 0.00 | 0.37 | 0.00 | 100 | 1010.9 |
| 20260510130830 | 55 | 141 | 0.0 | 0.0 | 0.00 | 0.37 | 0.00 | 100 | 1011.0 |
| 20260510130401 | 55 | 141 | 0.0 | 0.0 | 0.00 | 0.37 | 0.00 | 100 | 1010.9 |
| 20260510125840 | 55 | 141 | 0.0 | 1.0 | 0.00 | 0.37 | 0.00 | 100 | 1010.8 |
| 20260510125340 | 54 | 141 | 0.0 | 1.0 | 0.00 | 0.37 | 0.00 | 100 | 1010.7 |
| 20260510124840 | 54 | 141 | 0.0 | 3.0 | 0.00 | 0.37 | 0.00 | 100 | 1010.6 |
| 20260510124344 | 54 | 141 | 0.0 | 3.0 | 0.00 | 0.37 | 0.00 | 100 | 1010.6 |
| 20260510123823 | 54 | 141 | 0.0 | 2.0 | 0.00 | 0.37 | 0.00 | 100 | 1010.5 |
| 20260510123324 | 54 | 141 | 0.0 | 2.0 | 0.00 | 0.37 | 0.00 | 100 | 1010.5 |
| 20260510122833 | 54 | 141 | 0.0 | 0.0 | 0.00 | 0.37 | 0.00 | 100 | 1010.5 |
| 20260510122335 | 54 | 141 | 0.0 | 0.0 | 0.00 | 0.37 | 0.00 | 100 | 1010.5 |
| 20260510121841 | 53 | 141 | 0.0 | 0.0 | 0.00 | 0.37 | 0.00 | 100 | 1010.5 |
| 20260510121320 | 53 | 141 | 0.0 | 0.0 | 0.00 | 0.37 | 0.00 | 100 | 1010.5 |
| 20260510120827 | 53 | 141 | 0.0 | 0.0 | 0.00 | 0.37 | 0.00 | 100 | 1010.6 |
| 20260510120320 | 53 | 141 | 0.0 | 0.0 | 0.00 | 0.37 | 0.00 | 100 | 1010.6 |
| 20260510115833 | 53 | 141 | 0.0 | 0.0 | 0.00 | 0.37 | 0.00 | 100 | 1010.5 |
| 20260510115338 | 52 | 141 | 0.0 | 0.0 | 0.00 | 0.37 | 0.00 | 100 | 1010.5 |
| 20260510114838 | 52 | 141 | 0.0 | 0.0 | 0.00 | 0.37 | 0.00 | 100 | 1010.5 |
| 20260510114406 | 52 | 141 | 0.0 | 0.0 | 0.00 | 0.37 | 0.00 | 100 | 1010.4 |
| 20260510113844 | 52 | 141 | 0.0 | 0.0 | 0.00 | 0.37 | 0.00 | 100 | 1010.4 |
| 20260510113324 | 52 | 141 | 0.0 | 0.0 | 0.00 | 0.37 | 0.00 | 100 | 1010.3 |
| 20260510112824 | 52 | 141 | 0.0 | 0.0 | 0.00 | 0.37 | 0.00 | 100 | 1010.3 |
| 20260510112328 | 52 | 141 | 0.0 | 0.0 | 0.00 | 0.37 | 0.00 | 100 | 1010.2 |
| 20260510111834 | 52 | 141 | 0.0 | 0.0 | 0.00 | 0.37 | 0.00 | 100 | 1010.2 |
| 20260510111333 | 52 | 141 | 0.0 | 0.0 | 0.00 | 0.37 | 0.00 | 100 | 1010.2 |
| 20260510110839 | 52 | 141 | 0.0 | 0.0 | 0.00 | 0.37 | 0.00 | 100 | 1010.0 |
| 20260510110338 | 52 | 141 | 0.0 | 0.0 | 0.00 | 0.37 | 0.00 | 100 | 1010.0 |
| 20260510105845 | 52 | 141 | 0.0 | 0.0 | 0.00 | 0.37 | 0.00 | 100 | 1010.1 |
| 20260510105345 | 52 | 141 | 0.0 | 0.0 | 0.00 | 0.39 | 0.00 | 100 | 1010.1 |
| 20260510104832 | 52 | 141 | 0.0 | 0.0 | 0.00 | 0.39 | 0.00 | 100 | 1009.9 |
| 20260510104331 | 52 | 141 | 0.0 | 0.0 | 0.00 | 0.39 | 0.00 | 100 | 1010.0 |
| 20260510103838 | 52 | 141 | 0.0 | 0.0 | 0.00 | 0.39 | 0.00 | 100 | 1009.9 |
| 20260510103322 | 52 | 141 | 0.0 | 1.0 | 0.00 | 0.39 | 0.00 | 100 | 1009.8 |
| 20260510102828 | 52 | 141 | 0.0 | 0.0 | 0.00 | 0.39 | 0.00 | 100 | 1009.7 |
| 20260510102327 | 52 | 141 | 0.0 | 0.0 | 0.00 | 0.39 | 0.00 | 100 | 1009.9 |
| 20260510101837 | 52 | 141 | 0.0 | 0.0 | 0.00 | 0.39 | 0.00 | 100 | 1009.9 |
| 20260510101345 | 52 | 141 | 0.0 | 0.0 | 0.00 | 0.39 | 0.00 | 100 | 1009.9 |
| 20260510100858 | 52 | 141 | 0.0 | 1.0 | 0.00 | 0.39 | 0.00 | 100 | 1009.7 |
| 20260510100337 | 52 | 141 | 0.0 | 0.0 | 0.00 | 0.39 | 0.00 | 100 | 1009.6 |
| 20260510095827 | 52 | 141 | 0.0 | 0.0 | 0.00 | 0.39 | 0.00 | 100 | 1009.4 |
| 20260510095333 | 51 | 141 | 0.0 | 1.0 | 0.00 | 0.42 | 0.00 | 100 | 1009.5 |
| 20260510094832 | 51 | 141 | 0.0 | 1.0 | 0.00 | 0.42 | 0.00 | 100 | 1009.4 |
| 20260510094407 | 51 | 141 | 0.0 | 0.0 | 0.00 | 0.42 | 0.00 | 100 | 1009.7 |
| 20260510093847 | 51 | 141 | 0.0 | 0.0 | 0.00 | 0.42 | 0.00 | 100 | 1009.7 |
| 20260510093326 | 51 | 141 | 0.0 | 0.0 | 0.00 | 0.42 | 0.00 | 100 | 1009.6 |
| 20260510092829 | 51 | 141 | 0.0 | 0.0 | 0.00 | 0.42 | 0.00 | 100 | 1009.6 |
| 20260510092328 | 51 | 141 | 0.0 | 0.0 | 0.00 | 0.42 | 0.00 | 100 | 1009.6 |
| 20260510091834 | 51 | 141 | 0.0 | 0.0 | 0.00 | 0.42 | 0.00 | 100 | 1009.7 |
| 20260510091332 | 52 | 141 | 0.0 | 0.0 | 0.00 | 0.42 | 0.00 | 100 | 1009.8 |
| 20260510090838 | 52 | 141 | 0.0 | 0.0 | 0.00 | 0.42 | 0.00 | 100 | 1009.5 |
| 20260510090336 | 52 | 141 | 0.0 | 0.0 | 0.00 | 0.42 | 0.00 | 100 | 1009.7 |
| 20260510085820 | 52 | 141 | 0.0 | 0.0 | 0.00 | 0.42 | 0.00 | 100 | 1009.7 |
| 20260510085326 | 52 | 141 | 0.0 | 0.0 | 0.00 | 0.46 | 0.00 | 100 | 1009.9 |
| 20260510084826 | 52 | 141 | 0.0 | 0.0 | 0.00 | 0.46 | 0.00 | 100 | 1009.9 |
| 20260510084331 | 52 | 141 | 0.0 | 0.0 | 0.00 | 0.46 | 0.00 | 100 | 1010.0 |
| 20260510083826 | 52 | 141 | 0.0 | 0.0 | 0.00 | 0.46 | 0.00 | 100 | 1009.9 |
| 20260510083327 | 52 | 141 | 0.0 | 0.0 | 0.00 | 0.46 | 0.00 | 100 | 1009.9 |
| 20260510082833 | 52 | 141 | 0.0 | 0.0 | 0.00 | 0.46 | 0.00 | 100 | 1009.8 |
| 20260510082321 | 52 | 141 | 0.0 | 0.0 | 0.00 | 0.46 | 0.00 | 100 | 1009.7 |
| 20260510081847 | 52 | 141 | 0.0 | 0.0 | 0.00 | 0.46 | 0.00 | 100 | 1009.6 |
| 20260510081327 | 52 | 141 | 0.0 | 0.0 | 0.00 | 0.46 | 0.00 | 100 | 1009.6 |
| 20260510080837 | 52 | 141 | 0.0 | 0.0 | 0.00 | 0.46 | 0.00 | 100 | 1009.8 |
| 20260510080338 | 52 | 141 | 0.0 | 0.0 | 0.00 | 0.46 | 0.00 | 100 | 1009.8 |
| 20260510075822 | 52 | 141 | 0.0 | 0.0 | 0.00 | 0.46 | 0.00 | 100 | 1009.8 |
| 20260510075410 | 52 | 141 | 0.0 | 0.0 | 0.00 | 0.46 | 0.00 | 100 | 1009.8 |
| 20260510074855 | 52 | 141 | 0.0 | 0.0 | 0.00 | 0.46 | 0.00 | 100 | 1009.7 |
| 20260510074335 | 52 | 141 | 0.0 | 0.0 | 0.00 | 0.46 | 0.00 | 100 | 1009.9 |
| 20260510073840 | 52 | 141 | 0.0 | 0.0 | 0.00 | 0.46 | 0.00 | 100 | 1009.4 |
| 20260510073340 | 52 | 141 | 0.0 | 0.0 | 0.00 | 0.46 | 0.00 | 100 | 1009.5 |
| 20260510072821 | 52 | 141 | 0.0 | 0.0 | 0.00 | 0.46 | 0.00 | 100 | 1009.5 |
| 20260510072348 | 52 | 141 | 0.0 | 0.0 | 0.00 | 0.46 | 0.00 | 100 | 1009.5 |
| 20260510071823 | 52 | 141 | 0.0 | 0.0 | 0.00 | 0.46 | 0.00 | 100 | 1009.6 |
| 20260510071323 | 52 | 141 | 0.0 | 0.0 | 0.00 | 0.46 | 0.00 | 100 | 1009.6 |
| 20260510070824 | 52 | 141 | 0.0 | 0.0 | 0.00 | 0.46 | 0.00 | 100 | 1009.5 |
| 20260510070352 | 52 | 141 | 0.0 | 0.0 | 0.00 | 0.46 | 0.00 | 100 | 1009.4 |
| 20260510065838 | 52 | 141 | 0.0 | 0.0 | 0.00 | 0.46 | 0.00 | 100 | 1009.5 |
| 20260510065338 | 52 | 141 | 0.0 | 0.0 | 0.00 | 0.46 | 0.00 | 100 | 1009.4 |
| 20260510064824 | 52 | 141 | 0.0 | 0.0 | 0.00 | 0.46 | 0.00 | 100 | 1009.4 |
| 20260510064326 | 52 | 141 | 0.0 | 0.0 | 0.00 | 0.46 | 0.00 | 100 | 1009.4 |
| 20260510063828 | 52 | 141 | 0.0 | 0.0 | 0.00 | 0.46 | 0.00 | 100 | 1009.6 |
| 20260510063326 | 52 | 141 | 0.0 | 0.0 | 0.00 | 0.46 | 0.00 | 100 | 1009.3 |
| 20260510062835 | 52 | 141 | 0.0 | 0.0 | 0.00 | 0.46 | 0.00 | 100 | 1009.4 |
| 20260510062326 | 52 | 141 | 0.0 | 0.0 | 0.00 | 0.46 | 0.00 | 100 | 1009.2 |
| 20260510061835 | 52 | 141 | 0.0 | 0.0 | 0.00 | 0.46 | 0.00 | 100 | 1009.2 |
| 20260510061325 | 52 | 141 | 0.0 | 0.0 | 0.00 | 0.46 | 0.00 | 100 | 1009.1 |
| 20260510060852 | 52 | 141 | 0.0 | 0.0 | 0.00 | 0.46 | 0.00 | 100 | 1009.1 |
| 20260510060342 | 52 | 141 | 0.0 | 0.0 | 0.00 | 0.46 | 0.00 | 100 | 1009.0 |
| 20260510055826 | 52 | 141 | 0.0 | 0.0 | 0.00 | 0.46 | 0.00 | 100 | 1009.1 |
| 20260510055328 | 52 | 141 | 0.0 | 0.0 | 0.00 | 0.46 | 0.00 | 100 | 1009.1 |
| 20260510054827 | 52 | 141 | 0.0 | 0.0 | 0.00 | 0.46 | 0.00 | 100 | 1009.1 |
| 20260510054327 | 52 | 141 | 0.0 | 0.0 | 0.00 | 0.46 | 0.00 | 100 | 1009.2 |
| 20260510053833 | 52 | 141 | 0.0 | 0.0 | 0.00 | 0.46 | 0.00 | 100 | 1009.2 |
| 20260510053337 | 52 | 141 | 0.0 | 0.0 | 0.00 | 0.46 | 0.00 | 100 | 1009.1 |
| 20260510052826 | 52 | 141 | 0.0 | 0.0 | 0.00 | 0.46 | 0.00 | 100 | 1009.1 |
| 20260510052326 | 52 | 141 | 0.0 | 0.0 | 0.00 | 0.46 | 0.00 | 100 | 1009.1 |
| 20260510051833 | 52 | 141 | 0.0 | 0.0 | 0.00 | 0.46 | 0.00 | 100 | 1009.4 |
| 20260510051343 | 53 | 141 | 0.0 | 0.0 | 0.00 | 0.46 | 0.00 | 100 | 1009.3 |
| 20260510050859 | 53 | 141 | 0.0 | 0.0 | 0.00 | 0.46 | 0.00 | 100 | 1009.4 |
| 20260510050320 | 53 | 141 | 0.0 | 0.0 | 0.00 | 0.46 | 0.00 | 100 | 1009.4 |
| 20260510045842 | 53 | 141 | 0.0 | 0.0 | 0.00 | 0.46 | 0.00 | 100 | 1009.4 |
| 20260510045353 | 53 | 141 | 0.0 | 0.0 | 0.00 | 0.46 | 0.00 | 100 | 1009.4 |
| 20260510044832 | 53 | 141 | 0.0 | 0.0 | 0.00 | 0.46 | 0.00 | 100 | 1009.5 |
| 20260510044329 | 53 | 141 | 0.0 | 0.0 | 0.00 | 0.46 | 0.00 | 100 | 1009.4 |
| 20260510043835 | 53 | 141 | 0.0 | 0.0 | 0.00 | 0.46 | 0.00 | 100 | 1009.4 |
| 20260510043336 | 53 | 141 | 0.0 | 0.0 | 0.00 | 0.46 | 0.00 | 100 | 1009.4 |
| 20260510042826 | 53 | 141 | 0.0 | 0.0 | 0.00 | 0.46 | 0.00 | 100 | 1009.4 |
| 20260510042356 | 53 | 141 | 0.0 | 0.0 | 0.00 | 0.46 | 0.00 | 100 | 1009.3 |
| 20260510041836 | 53 | 141 | 0.0 | 0.0 | 0.00 | 0.46 | 0.00 | 100 | 1009.2 |
| 20260510041337 | 53 | 141 | 0.0 | 0.0 | 0.00 | 0.46 | 0.00 | 100 | 1009.2 |
| 20260510040840 | 53 | 141 | 0.0 | 0.0 | 0.00 | 0.46 | 0.00 | 100 | 1009.3 |
| 20260510040327 | 53 | 141 | 0.0 | 0.0 | 0.00 | 0.46 | 0.00 | 100 | 1009.4 |
| 20260510035826 | 53 | 141 | 0.0 | 0.0 | 0.00 | 0.46 | 0.00 | 100 | 1009.4 |
| 20260510035359 | 53 | 141 | 0.0 | 0.0 | 0.00 | 0.46 | 0.46 | 100 | 1009.3 |
| 20260510034839 | 53 | 141 | 0.0 | 0.0 | 0.00 | 0.46 | 0.46 | 100 | 1009.4 |
| 20260510034327 | 53 | 141 | 0.0 | 0.0 | 0.00 | 0.46 | 0.46 | 100 | 1009.5 |
| 20260510033828 | 53 | 141 | 0.0 | 0.0 | 0.00 | 0.46 | 0.46 | 100 | 1009.4 |
| 20260510033335 | 53 | 141 | 0.0 | 0.0 | 0.00 | 0.46 | 0.46 | 100 | 1009.4 |
| 20260510032839 | 53 | 141 | 0.0 | 1.0 | 0.00 | 0.46 | 0.46 | 100 | 1009.5 |
| 20260510032336 | 53 | 137 | 0.0 | 1.0 | 0.00 | 0.46 | 0.46 | 100 | 1009.4 |
| 20260510031821 | 53 | 136 | 0.0 | 0.0 | 0.00 | 0.46 | 0.46 | 100 | 1009.5 |
| 20260510031322 | 53 | 136 | 0.0 | 0.0 | 0.00 | 0.46 | 0.46 | 100 | 1009.5 |
| 20260510030826 | 53 | 136 | 0.0 | 1.0 | 0.00 | 0.46 | 0.46 | 100 | 1009.6 |
| 20260510030326 | 53 | 136 | 0.0 | 1.0 | 0.00 | 0.46 | 0.46 | 100 | 1009.5 |
| 20260510025827 | 53 | 137 | 0.0 | 0.0 | 0.00 | 0.46 | 0.46 | 100 | 1009.4 |
| 20260510025327 | 53 | 137 | 0.0 | 0.0 | 0.00 | 0.46 | 0.46 | 100 | 1009.2 |
| 20260510024823 | 53 | 137 | 0.0 | 0.0 | 0.00 | 0.46 | 0.46 | 100 | 1009.2 |
| 20260510024354 | 53 | 137 | 0.0 | 0.0 | 0.00 | 0.46 | 0.46 | 100 | 1009.1 |
| 20260510023834 | 53 | 137 | 0.0 | 0.0 | 0.00 | 0.46 | 0.46 | 100 | 1009.1 |
| 20260510023338 | 53 | 137 | 0.0 | 0.0 | 0.00 | 0.46 | 0.46 | 100 | 1009.1 |
| 20260510022827 | 53 | 137 | 0.0 | 0.0 | 0.00 | 0.46 | 0.46 | 100 | 1009.1 |
| 20260510022328 | 53 | 137 | 0.0 | 0.0 | 0.00 | 0.46 | 0.46 | 100 | 1009.3 |
| 20260510021829 | 53 | 137 | 0.0 | 0.0 | 0.00 | 0.46 | 0.46 | 100 | 1009.2 |
| 20260510021328 | 53 | 137 | 0.0 | 0.0 | 0.00 | 0.46 | 0.46 | 100 | 1009.2 |
| 20260510020829 | 53 | 137 | 0.0 | 0.0 | 0.00 | 0.46 | 0.46 | 100 | 1009.4 |
| 20260510020337 | 53 | 137 | 0.0 | 0.0 | 0.00 | 0.46 | 0.46 | 100 | 1009.3 |
| 20260510015843 | 53 | 137 | 0.0 | 0.0 | 0.00 | 0.46 | 0.46 | 100 | 1009.4 |
| 20260510015347 | 53 | 137 | 0.0 | 0.0 | 0.00 | 0.46 | 0.46 | 100 | 1009.5 |
| 20260510014829 | 53 | 137 | 0.0 | 0.0 | 0.00 | 0.46 | 0.46 | 100 | 1009.5 |
| 20260510014323 | 53 | 137 | 0.0 | 0.0 | 0.00 | 0.46 | 0.46 | 100 | 1009.5 |
| 20260510013828 | 53 | 137 | 0.0 | 0.0 | 0.00 | 0.46 | 0.46 | 100 | 1009.5 |
| 20260510013329 | 53 | 137 | 0.0 | 0.0 | 0.00 | 0.46 | 0.46 | 100 | 1009.5 |
| 20260510012829 | 53 | 137 | 0.0 | 0.0 | 0.00 | 0.46 | 0.46 | 100 | 1009.5 |
| 20260510012355 | 53 | 137 | 0.0 | 0.0 | 0.00 | 0.46 | 0.46 | 100 | 1009.5 |
| 20260510011840 | 53 | 137 | 0.0 | 0.0 | 0.00 | 0.46 | 0.46 | 100 | 1009.4 |
| 20260510011337 | 53 | 137 | 0.0 | 0.0 | 0.00 | 0.46 | 0.46 | 100 | 1009.2 |
| 20260510010837 | 53 | 137 | 0.0 | 0.0 | 0.00 | 0.46 | 0.46 | 100 | 1009.1 |
| 20260510010327 | 53 | 137 | 0.0 | 0.0 | 0.00 | 0.46 | 0.46 | 100 | 1009.0 |
| 20260510005832 | 53 | 137 | 0.0 | 0.0 | 0.00 | 0.46 | 0.46 | 100 | 1009.0 |
| 20260510005403 | 53 | 137 | 0.0 | 0.0 | 0.00 | 0.46 | 0.46 | 100 | 1009.0 |
| 20260510004843 | 53 | 137 | 0.0 | 0.0 | 0.00 | 0.46 | 0.46 | 100 | 1008.8 |
| 20260510004340 | 53 | 137 | 0.0 | 0.0 | 0.00 | 0.46 | 0.46 | 100 | 1008.9 |
| 20260510003842 | 52 | 137 | 0.0 | 0.0 | 0.00 | 0.46 | 0.46 | 100 | 1008.9 |
| 20260510003329 | 53 | 137 | 0.0 | 0.0 | 0.00 | 0.46 | 0.46 | 100 | 1008.8 |
| 20260510002832 | 53 | 137 | 0.0 | 0.0 | 0.00 | 0.46 | 0.46 | 100 | 1008.7 |
| 20260510002339 | 53 | 137 | 0.0 | 0.0 | 0.00 | 0.46 | 0.46 | 100 | 1008.7 |
| 20260510001823 | 53 | 137 | 0.0 | 0.0 | 0.00 | 0.46 | 0.46 | 100 | 1008.5 |
| 20260510001320 | 53 | 137 | 0.0 | 0.0 | 0.00 | 0.46 | 0.46 | 100 | 1008.6 |
| 20260510000824 | 53 | 137 | 0.0 | 0.0 | 0.00 | 0.46 | 0.46 | 100 | 1008.5 |
| 20260510000328 | 53 | 137 | 0.0 | 0.0 | 0.00 | 0.46 | 0.46 | 100 | 1008.4 |
| 20260509235828 | 53 | 137 | 0.0 | 0.0 | 0.00 | 0.46 | 0.46 | 100 | 1008.3 |
| 20260509235327 | 53 | 137 | 0.0 | 0.0 | 0.00 | 0.46 | 0.46 | 100 | 1008.4 |
| 20260509234828 | 53 | 137 | 0.0 | 0.0 | 0.00 | 0.46 | 0.46 | 100 | 1008.5 |
| 20260509234338 | 53 | 137 | 0.0 | 0.0 | 0.00 | 0.46 | 0.46 | 100 | 1008.5 |
| 20260509233823 | 52 | 137 | 0.0 | 0.0 | 0.00 | 0.46 | 0.46 | 100 | 1008.6 |
| 20260509233325 | 52 | 137 | 0.0 | 0.0 | 0.00 | 0.46 | 0.46 | 100 | 1008.6 |
| 20260509232829 | 52 | 137 | 0.0 | 0.0 | 0.00 | 0.46 | 0.46 | 100 | 1008.8 |
| 20260509232330 | 52 | 137 | 0.0 | 0.0 | 0.00 | 0.46 | 0.46 | 100 | 1008.8 |
| 20260509231832 | 52 | 137 | 0.0 | 0.0 | 0.00 | 0.46 | 0.46 | 100 | 1008.9 |
| 20260509231336 | 52 | 137 | 0.0 | 0.0 | 0.01 | 0.46 | 0.46 | 100 | 1008.9 |
| 20260509230823 | 52 | 137 | 0.0 | 0.0 | 0.02 | 0.46 | 0.46 | 100 | 1008.9 |
| 20260509230327 | 52 | 137 | 0.0 | 0.0 | 0.02 | 0.46 | 0.46 | 100 | 1009.0 |
| 20260509225834 | 52 | 137 | 0.0 | 0.0 | 0.03 | 0.46 | 0.46 | 100 | 1009.0 |
| 20260509225332 | 52 | 137 | 0.0 | 0.0 | 0.03 | 0.46 | 0.46 | 100 | 1009.0 |
| 20260509224902 | 52 | 137 | 0.0 | 0.0 | 0.03 | 0.46 | 0.46 | 100 | 1009.0 |
| 20260509224345 | 52 | 136 | 0.0 | 0.0 | 0.04 | 0.46 | 0.46 | 100 | 1009.0 |
| 20260509223856 | 52 | 136 | 0.0 | 0.0 | 0.04 | 0.46 | 0.46 | 100 | 1009.0 |
| 20260509223332 | 52 | 136 | 0.0 | 0.0 | 0.04 | 0.46 | 0.46 | 100 | 1009.1 |
| 20260509222902 | 52 | 137 | 0.0 | 0.0 | 0.04 | 0.46 | 0.46 | 100 | 1009.1 |
| 20260509222342 | 52 | 137 | 0.0 | 1.0 | 0.04 | 0.46 | 0.46 | 100 | 1009.2 |
| 20260509221843 | 52 | 137 | 0.0 | 1.0 | 0.04 | 0.45 | 0.45 | 100 | 1009.0 |
| 20260509221324 | 52 | 137 | 0.0 | 0.0 | 0.03 | 0.44 | 0.44 | 100 | 1009.2 |
| 20260509220853 | 52 | 137 | 0.0 | 0.0 | 0.03 | 0.44 | 0.44 | 100 | 1009.2 |
| 20260509220337 | 52 | 137 | 0.0 | 0.0 | 0.03 | 0.44 | 0.44 | 100 | 1009.2 |
| 20260509215842 | 51 | 137 | 0.0 | 0.0 | 0.03 | 0.43 | 0.43 | 100 | 1009.4 |
| 20260509215342 | 51 | 137 | 0.0 | 0.0 | 0.03 | 0.43 | 0.43 | 100 | 1009.3 |
| 20260509214847 | 51 | 137 | 0.0 | 0.0 | 0.03 | 0.42 | 0.42 | 100 | 1009.2 |
| 20260509214348 | 51 | 137 | 0.0 | 0.0 | 0.04 | 0.42 | 0.42 | 100 | 1009.2 |
| 20260509213834 | 51 | 137 | 0.0 | 0.0 | 0.04 | 0.42 | 0.42 | 100 | 1009.2 |
| 20260509213318 | 51 | 137 | 0.0 | 0.0 | 0.06 | 0.42 | 0.42 | 100 | 1009.2 |
| 20260509212823 | 51 | 137 | 0.0 | 0.0 | 0.08 | 0.42 | 0.42 | 100 | 1009.2 |
| 20260509212327 | 51 | 137 | 0.0 | 0.0 | 0.11 | 0.42 | 0.42 | 100 | 1009.1 |
| 20260509211827 | 52 | 137 | 0.0 | 0.0 | 0.13 | 0.41 | 0.41 | 100 | 1009.1 |
| 20260509211328 | 52 | 137 | 0.0 | 0.0 | 0.14 | 0.41 | 0.41 | 100 | 1009.2 |
| 20260509210835 | 51 | 137 | 0.0 | 0.0 | 0.15 | 0.41 | 0.41 | 100 | 1009.2 |
| 20260509210333 | 51 | 137 | 0.0 | 0.0 | 0.16 | 0.41 | 0.41 | 100 | 1009.1 |
| 20260509205907 | 51 | 137 | 0.0 | 0.0 | 0.16 | 0.40 | 0.40 | 100 | 1009.2 |
| 20260509205328 | 51 | 137 | 0.0 | 0.0 | 0.17 | 0.40 | 0.40 | 100 | 1009.3 |
| 20260509204835 | 52 | 137 | 0.0 | 0.0 | 0.18 | 0.39 | 0.39 | 100 | 1009.3 |
| 20260509204335 | 52 | 137 | 0.0 | 0.0 | 0.18 | 0.38 | 0.38 | 100 | 1009.3 |
| 20260509203823 | 52 | 137 | 0.0 | 0.0 | 0.19 | 0.38 | 0.38 | 100 | 1009.5 |
| 20260509203326 | 52 | 137 | 0.0 | 0.0 | 0.18 | 0.36 | 0.36 | 100 | 1009.5 |
| 20260509202826 | 52 | 137 | 0.0 | 0.0 | 0.17 | 0.34 | 0.34 | 100 | 1009.5 |
| 20260509202323 | 52 | 137 | 0.0 | 0.0 | 0.14 | 0.30 | 0.30 | 100 | 1009.6 |
| 20260509201826 | 52 | 137 | 0.0 | 0.0 | 0.13 | 0.28 | 0.28 | 100 | 1009.6 |
| 20260509201326 | 52 | 137 | 0.0 | 0.0 | 0.13 | 0.27 | 0.27 | 100 | 1009.5 |
| 20260509200829 | 52 | 137 | 0.0 | 0.0 | 0.13 | 0.26 | 0.26 | 100 | 1009.5 |
| 20260509200400 | 52 | 137 | 0.0 | 0.0 | 0.13 | 0.25 | 0.25 | 100 | 1009.5 |
| 20260509195839 | 52 | 137 | 0.0 | 0.0 | 0.14 | 0.24 | 0.24 | 100 | 1009.4 |
| 20260509195339 | 52 | 137 | 0.0 | 0.0 | 0.12 | 0.22 | 0.22 | 100 | 1009.5 |
| 20260509194839 | 52 | 137 | 0.0 | 0.0 | 0.11 | 0.21 | 0.21 | 100 | 1009.7 |
| 20260509194324 | 52 | 137 | 0.0 | 0.0 | 0.10 | 0.20 | 0.20 | 100 | 1009.6 |
| 20260509193833 | 52 | 137 | 0.0 | 0.0 | 0.09 | 0.19 | 0.19 | 100 | 1009.6 |
| 20260509193334 | 52 | 137 | 0.0 | 0.0 | 0.08 | 0.18 | 0.18 | 99 | 1009.7 |
| 20260509192838 | 52 | 137 | 0.0 | 1.0 | 0.07 | 0.17 | 0.17 | 99 | 1009.8 |